Weather Roundup
Issued by NWS Chicago, IL

Home | Current Version | Previous Version | Graphics & Text | Print | Product List | Glossary On
Versions: 1 2 3 4 5 6 7 8 9 10 11 12 13 14 15 16 17 18 19 20 21 22 23 24 25 26 27 28 29 30 31 32 33 34 35 36 37 38 39 40 41 42 43 44 45 46 47 48 49 50
000
NZUS59 KLOT 020012
HRRLOT

CHICAGO AREA WEATHER ROUNDUP
NATIONAL WEATHER SERVICE CHICAGO/ROMEOVILLE IL
700 PM CDT SAT AUG 01 2015

NOTE: "FAIR" INDICATES FEW OR NO CLOUDS BELOW 12,000 FEET WITH NO
SIGNIFICANT WEATHER AND/OR OBSTRUCTIONS TO VISIBILITY.

* THESE STATIONS ARE NOT UNDER NWS QUALITY CONTROL. THEY ALSO MAY NOT
  REPORT WEATHER SUCH AS PRECIPITATION OR FOG.

ILZ005-006-012>014-019>023-020100-
NORTHEAST ILLINOIS

CITY           SKY/WX    TMP DP  RH WIND       PRES   REMARKS
OHARE          PTSUNNY   83  61  47 SW16      29.89F HX  83
6HR MIN TEMP:  82; 6HR MAX TEMP:  87;

MIDWAY         PTSUNNY   85  59  41 W14       29.89F HX  84
6HR MIN TEMP:  85; 6HR MAX TEMP:  89;

AURORA         MOSUNNY   80  62  54 SW9       29.91F HX  81
6HR MIN TEMP:  80; 6HR MAX TEMP:  86;

LANSING*       SUNNY     82  59  45 W10G18    29.91S HX  82
JOLIET*        MOSUNNY   82  64  54 SW7       29.91F HX  84
WAUKEGAN       MOSUNNY   82  63  52 SW6       29.86F HX  83
6HR MIN TEMP:  80; 6HR MAX TEMP:  85;

DUPAGE AIRPORT MOSUNNY   82  62  50 SW13      29.90F HX  83
6HR MIN TEMP:  82; 6HR MAX TEMP:  86;

WHEELING       MOSUNNY   84  59  42 W14       29.89F HX  84
6HR MIN TEMP:  83; 6HR MAX TEMP:  87;

KANKAKEE*      MOSUNNY   79  64  60 SW6       29.94F HX  81
MORRIS*        PTSUNNY   79  65  61 W7        29.91F HX  81
LEWIS AIRPORT* MOSUNNY   80  60  50 W10G18    29.91F HX  81
NORTHERLY IS     N/A     84  58  40 W7          N/A  HX  83
$$

WIZ051-052-058>065-066-070>072-020100-
SOUTHEAST WISCONSIN

CITY           SKY/WX    TMP DP  RH WIND       PRES   REMARKS
MILWAUKEE      MOSUNNY   83  57  41 NW8       29.87F HX  82
6HR MIN TEMP:  78; 6HR MAX TEMP:  85;

KENOSHA*       SUNNY     79  64  60 E7        29.88F HX  81
RACINE*        SUNNY     77  58  51 S10       29.89F
BURLINGTON     SUNNY     81  59  47 W5        29.88F HX  81
WAUKESHA       SUNNY     81  57  44 NW3       29.89F HX  81
WEST BEND      SUNNY     79  52  38 SW5       29.87F
$$

INZ001>003-010>013-019-020-020100-
NORTHWEST INDIANA

CITY           SKY/WX    TMP DP  RH WIND       PRES   REMARKS
GARY*          PTSUNNY   84  61  45 W12G25    29.90F HX  84
MICHIGAN CITY* NOT AVBL
RENSSELAER*    NOT AVBL
VALPARAISO     SUNNY     81  60  48 SW14      29.92F HX  82
$$

LMZ740>746-020100-
SOUTHERN LAKE MICHIGAN

STATION/POSITION TIME  SKY/WX   TEMP WIND        PRES    VSBY
                                AIR  DIR/SP/G
                 (UTC)          (F)  (DEG/KT/KT) (MB)    (MI)
HARRISON CRIB    2300            82  260/ 21/ 24   N/A
BURNHAM HARBOR   0000            83  250/ 11/ 16   N/A
CALUMET HARBOR   2300            84  240/  5/ 14   N/A
BURNS HARBOR     2300            81  260/ 16/ 19 1012.9F
MICHIGAN CITY    2300            78   30/  1/  2   N/A
$$

ABBREVIATIONS USED IN REMARKS
   TC - TEMPERATURE IN CELSIUS
  WCI - WIND CHILL INDEX
   HX - HEAT INDEX
  VSB - VISIBILITY
$$



USA.gov is the U.S. government's official web portal to all federal, state and local government web resources and services.